Year,Month,Day,Hour,Minute,Value (Times are PST for windspeed in km/hr)
2022,05,18,00,00,0.00
2022,05,18,00,01,0.70
2022,05,18,00,02,0.70
2022,05,18,00,03,0.90
2022,05,18,00,04,0.00
2022,05,18,00,05,0.00
2022,05,18,00,06,0.00
2022,05,18,00,07,0.00
2022,05,18,00,08,0.00
2022,05,18,00,09,0.00
2022,05,18,00,10,0.00
2022,05,18,00,11,0.00
2022,05,18,00,12,0.00
2022,05,18,00,13,0.00
2022,05,18,00,14,0.00
2022,05,18,00,15,0.00
2022,05,18,00,16,0.00
2022,05,18,00,17,0.00
2022,05,18,00,18,0.10
2022,05,18,00,19,0.50
2022,05,18,00,20,0.90
2022,05,18,00,21,0.90
2022,05,18,00,22,0.70
2022,05,18,00,23,1.10
2022,05,18,00,24,0.90
2022,05,18,00,25,0.40
2022,05,18,00,26,0.00
2022,05,18,00,27,0.50
2022,05,18,00,28,0.60
2022,05,18,00,29,1.40
2022,05,18,00,30,1.70
2022,05,18,00,31,0.80
2022,05,18,00,32,0.90
2022,05,18,00,33,0.30
2022,05,18,00,34,0.00
2022,05,18,00,35,0.70
2022,05,18,00,36,0.00
2022,05,18,00,37,0.00
2022,05,18,00,38,0.00
2022,05,18,00,39,0.00
2022,05,18,00,40,0.00
2022,05,18,00,41,0.00
2022,05,18,00,42,0.00
2022,05,18,00,43,0.00
2022,05,18,00,44,0.00
2022,05,18,00,45,0.00
2022,05,18,00,46,0.00
2022,05,18,00,47,0.00
2022,05,18,00,48,0.00
2022,05,18,00,49,0.00
2022,05,18,00,50,0.00
2022,05,18,00,51,0.00
2022,05,18,00,52,0.00
2022,05,18,00,53,0.00
2022,05,18,00,54,0.00
2022,05,18,00,55,0.00
2022,05,18,00,56,0.00
2022,05,18,00,57,0.00
2022,05,18,00,58,0.00
2022,05,18,00,59,0.00
2022,05,18,01,00,0.00
2022,05,18,01,01,0.00
2022,05,18,01,02,0.00
2022,05,18,01,03,0.00
2022,05,18,01,04,0.00
2022,05,18,01,05,0.00
2022,05,18,01,06,0.00
2022,05,18,01,07,0.00
2022,05,18,01,08,0.00
2022,05,18,01,09,0.00
2022,05,18,01,10,2.10
2022,05,18,01,11,0.80
2022,05,18,01,12,2.50
2022,05,18,01,13,4.00
2022,05,18,01,14,3.80
2022,05,18,01,15,2.90
2022,05,18,01,16,1.60
2022,05,18,01,17,0.00
2022,05,18,01,18,0.10
2022,05,18,01,19,1.20
2022,05,18,01,20,0.50
2022,05,18,01,21,0.30
2022,05,18,01,22,0.00
2022,05,18,01,23,0.60
2022,05,18,01,24,1.70
2022,05,18,01,25,1.20
2022,05,18,01,26,0.00
2022,05,18,01,27,0.00
2022,05,18,01,28,0.00
2022,05,18,01,29,0.00
2022,05,18,01,30,0.00
2022,05,18,01,31,0.00
2022,05,18,01,32,0.00
2022,05,18,01,33,0.00
2022,05,18,01,34,0.00
2022,05,18,01,35,0.00
2022,05,18,01,36,0.00
2022,05,18,01,37,0.00
2022,05,18,01,38,0.00
2022,05,18,01,39,0.00
2022,05,18,01,40,1.00
2022,05,18,01,41,1.80
2022,05,18,01,42,1.40
2022,05,18,01,43,0.80
2022,05,18,01,44,0.60
2022,05,18,01,45,2.00
2022,05,18,01,46,3.00
2022,05,18,01,47,3.20
2022,05,18,01,48,3.70
2022,05,18,01,49,4.40
2022,05,18,01,50,3.80
2022,05,18,01,51,3.70
2022,05,18,01,52,4.30
2022,05,18,01,53,4.10
2022,05,18,01,54,4.60
2022,05,18,01,55,3.70
2022,05,18,01,56,2.10
2022,05,18,01,57,4.30
2022,05,18,01,58,4.20
2022,05,18,01,59,3.40
2022,05,18,02,00,3.40
2022,05,18,02,01,3.30
2022,05,18,02,02,2.20
2022,05,18,02,03,3.10
2022,05,18,02,04,1.80
2022,05,18,02,05,2.00
2022,05,18,02,06,2.30
2022,05,18,02,07,3.20
2022,05,18,02,08,2.10
2022,05,18,02,09,1.20
2022,05,18,02,10,0.30
2022,05,18,02,11,1.80
2022,05,18,02,12,1.60
2022,05,18,02,13,1.70
2022,05,18,02,14,1.70
2022,05,18,02,15,1.50
2022,05,18,02,16,0.10
2022,05,18,02,17,0.20
2022,05,18,02,18,0.00
2022,05,18,02,19,0.50
2022,05,18,02,20,0.00
2022,05,18,02,21,1.40
2022,05,18,02,22,2.20
2022,05,18,02,23,2.10
2022,05,18,02,24,2.90
2022,05,18,02,25,1.70
2022,05,18,02,26,1.00
2022,05,18,02,27,1.00
2022,05,18,02,28,0.70
2022,05,18,02,29,1.20
2022,05,18,02,30,0.60
2022,05,18,02,31,0.60
2022,05,18,02,32,0.40
2022,05,18,02,33,0.30
2022,05,18,02,34,0.00
2022,05,18,02,35,0.70
2022,05,18,02,36,0.10
2022,05,18,02,37,0.00
2022,05,18,02,38,0.00
2022,05,18,02,39,0.00
2022,05,18,02,40,0.00
2022,05,18,02,41,0.00
2022,05,18,02,42,0.00
2022,05,18,02,43,0.00
2022,05,18,02,44,0.00
2022,05,18,02,45,0.00
2022,05,18,02,46,0.00
2022,05,18,02,47,0.00
2022,05,18,02,48,0.30
2022,05,18,02,49,2.20
2022,05,18,02,50,2.90
2022,05,18,02,51,3.20
2022,05,18,02,52,3.40
2022,05,18,02,53,2.70
2022,05,18,02,54,2.20
2022,05,18,02,55,2.10
2022,05,18,02,56,1.70
2022,05,18,02,57,2.00
2022,05,18,02,58,2.00
2022,05,18,02,59,0.30
2022,05,18,03,00,0.60
2022,05,18,03,01,1.30
2022,05,18,03,02,1.60
2022,05,18,03,03,3.30
2022,05,18,03,04,1.60
2022,05,18,03,05,2.90
2022,05,18,03,06,1.40
2022,05,18,03,07,2.40
2022,05,18,03,08,2.40
2022,05,18,03,09,2.80
2022,05,18,03,10,3.10
2022,05,18,03,11,3.00
2022,05,18,03,12,3.00
2022,05,18,03,13,4.50
2022,05,18,03,14,3.90
2022,05,18,03,15,4.00
2022,05,18,03,16,3.00
2022,05,18,03,17,2.70
2022,05,18,03,18,1.70
2022,05,18,03,19,3.40
2022,05,18,03,20,1.30
2022,05,18,03,21,1.80
2022,05,18,03,22,0.60
2022,05,18,03,23,1.00
2022,05,18,03,24,1.80
2022,05,18,03,25,2.40
2022,05,18,03,26,3.10
2022,05,18,03,27,2.40
2022,05,18,03,28,2.60
2022,05,18,03,29,3.20
2022,05,18,03,30,2.80
2022,05,18,03,31,3.50
2022,05,18,03,32,2.80
2022,05,18,03,33,2.90
2022,05,18,03,34,3.00
2022,05,18,03,35,3.60
2022,05,18,03,36,4.10
2022,05,18,03,37,2.90
2022,05,18,03,38,2.00
2022,05,18,03,39,4.40
2022,05,18,03,40,2.50
2022,05,18,03,41,4.30
2022,05,18,03,42,2.70
2022,05,18,03,43,2.90
2022,05,18,03,44,3.00
2022,05,18,03,45,3.60
2022,05,18,03,46,3.30
2022,05,18,03,47,3.40
2022,05,18,03,48,2.00
2022,05,18,03,49,3.70
2022,05,18,03,50,3.90
2022,05,18,03,51,5.00
2022,05,18,03,52,4.90
2022,05,18,03,53,1.30
2022,05,18,03,54,2.70
2022,05,18,03,55,2.80
2022,05,18,03,56,3.80
2022,05,18,03,57,2.80
2022,05,18,03,58,2.10
2022,05,18,03,59,0.40
2022,05,18,04,00,1.90
2022,05,18,04,01,2.40
2022,05,18,04,02,2.80
2022,05,18,04,03,3.80
2022,05,18,04,04,4.60
2022,05,18,04,05,5.10
2022,05,18,04,06,3.00
2022,05,18,04,07,3.60
2022,05,18,04,08,4.10
2022,05,18,04,09,3.30
2022,05,18,04,10,4.50
2022,05,18,04,11,3.70
2022,05,18,04,12,3.50
2022,05,18,04,13,1.70
2022,05,18,04,14,1.50
2022,05,18,04,15,3.20
2022,05,18,04,16,4.20
2022,05,18,04,17,2.60
2022,05,18,04,18,2.30
2022,05,18,04,19,2.50
2022,05,18,04,20,2.20
2022,05,18,04,21,2.80
2022,05,18,04,22,2.40
2022,05,18,04,23,3.50
2022,05,18,04,24,4.70
2022,05,18,04,25,4.00
2022,05,18,04,26,3.80
2022,05,18,04,27,2.20
2022,05,18,04,28,1.60
2022,05,18,04,29,1.90
2022,05,18,04,30,2.70
2022,05,18,04,31,1.80
2022,05,18,04,32,0.00
2022,05,18,04,33,0.00
2022,05,18,04,34,0.00
2022,05,18,04,35,0.00
2022,05,18,04,36,0.60
2022,05,18,04,37,1.30
2022,05,18,04,38,1.10
2022,05,18,04,39,2.00
2022,05,18,04,40,3.10
2022,05,18,04,41,3.30
2022,05,18,04,42,2.10
2022,05,18,04,43,1.70
2022,05,18,04,44,1.00
2022,05,18,04,45,0.60
2022,05,18,04,46,0.50
2022,05,18,04,47,1.30
2022,05,18,04,48,2.20
2022,05,18,04,49,2.60
2022,05,18,04,50,3.30
2022,05,18,04,51,4.20
2022,05,18,04,52,3.60
2022,05,18,04,53,3.20
2022,05,18,04,54,2.00
2022,05,18,04,55,0.30
2022,05,18,04,56,0.00
2022,05,18,04,57,0.60
2022,05,18,04,58,2.30
2022,05,18,04,59,2.20
2022,05,18,05,00,1.20
2022,05,18,05,01,0.00
2022,05,18,05,02,0.00
2022,05,18,05,03,0.00
2022,05,18,05,04,0.00
2022,05,18,05,05,0.10
2022,05,18,05,06,2.00
2022,05,18,05,07,3.50
2022,05,18,05,08,3.40
2022,05,18,05,09,1.90
2022,05,18,05,10,2.50
2022,05,18,05,11,2.00
2022,05,18,05,12,2.40
2022,05,18,05,13,3.00
2022,05,18,05,14,2.20
2022,05,18,05,15,2.10
2022,05,18,05,16,2.30
2022,05,18,05,17,1.40
2022,05,18,05,18,1.80
2022,05,18,05,19,1.00
2022,05,18,05,20,2.10
2022,05,18,05,21,2.10
2022,05,18,05,22,1.90
2022,05,18,05,23,3.00
2022,05,18,05,24,3.50
2022,05,18,05,25,2.50
2022,05,18,05,26,2.10
2022,05,18,05,27,2.50
2022,05,18,05,28,1.20
2022,05,18,05,29,0.70
2022,05,18,05,30,0.60
2022,05,18,05,31,0.50
2022,05,18,05,32,1.20
2022,05,18,05,33,2.20
2022,05,18,05,34,4.10
2022,05,18,05,35,4.10
2022,05,18,05,36,4.60
2022,05,18,05,37,4.40
2022,05,18,05,38,5.50
2022,05,18,05,39,4.60
2022,05,18,05,40,5.30
2022,05,18,05,41,4.40
2022,05,18,05,42,3.60
2022,05,18,05,43,4.40
2022,05,18,05,44,4.00
2022,05,18,05,45,4.90
2022,05,18,05,46,5.30
2022,05,18,05,47,4.60
2022,05,18,05,48,4.30
2022,05,18,05,49,4.30
2022,05,18,05,50,3.40
2022,05,18,05,51,2.90
2022,05,18,05,52,1.90
2022,05,18,05,53,1.40
2022,05,18,05,54,3.00
2022,05,18,05,55,1.40
2022,05,18,05,56,2.20
2022,05,18,05,57,5.00
2022,05,18,05,58,5.30
2022,05,18,05,59,4.60
2022,05,18,06,00,3.40
2022,05,18,06,01,4.10
2022,05,18,06,02,5.30
2022,05,18,06,03,4.70
2022,05,18,06,04,2.30
2022,05,18,06,05,0.40
2022,05,18,06,06,0.70
2022,05,18,06,07,3.30
2022,05,18,06,08,4.00
2022,05,18,06,09,3.00
2022,05,18,06,10,3.00
2022,05,18,06,11,2.70
2022,05,18,06,12,1.30
2022,05,18,06,13,2.00
2022,05,18,06,14,4.30
2022,05,18,06,15,5.80
2022,05,18,06,16,7.20
2022,05,18,06,17,6.50
2022,05,18,06,18,4.80
2022,05,18,06,19,4.20
2022,05,18,06,20,5.80
2022,05,18,06,21,5.20
2022,05,18,06,22,3.00
2022,05,18,06,23,1.60
2022,05,18,06,24,2.70
2022,05,18,06,25,4.00
2022,05,18,06,26,3.50
2022,05,18,06,27,2.50
2022,05,18,06,28,3.00
2022,05,18,06,29,3.90
2022,05,18,06,30,2.50
2022,05,18,06,31,2.60
2022,05,18,06,32,4.40
2022,05,18,06,33,4.60
2022,05,18,06,34,6.50
2022,05,18,06,35,5.50
2022,05,18,06,36,5.30
2022,05,18,06,37,4.10
2022,05,18,06,38,5.30
2022,05,18,06,39,2.60
2022,05,18,06,40,2.30
2022,05,18,06,41,2.90
2022,05,18,06,42,5.30
2022,05,18,06,43,5.40
2022,05,18,06,44,4.80
2022,05,18,06,45,5.20
2022,05,18,06,46,4.60
2022,05,18,06,47,3.30
2022,05,18,06,48,2.30
2022,05,18,06,49,3.50
2022,05,18,06,50,4.60
2022,05,18,06,51,5.80
2022,05,18,06,52,4.60
2022,05,18,06,53,6.40
2022,05,18,06,54,5.60
2022,05,18,06,55,5.00
2022,05,18,06,56,2.60
2022,05,18,06,57,3.60
2022,05,18,06,58,7.50
2022,05,18,06,59,7.10
2022,05,18,07,00,5.00
2022,05,18,07,01,3.80
2022,05,18,07,02,4.20
2022,05,18,07,03,5.10
2022,05,18,07,04,4.60
2022,05,18,07,05,2.80
2022,05,18,07,06,4.80
2022,05,18,07,07,3.10
2022,05,18,07,08,3.60
2022,05,18,07,09,2.80
2022,05,18,07,10,2.60
2022,05,18,07,11,3.10
2022,05,18,07,12,5.80
2022,05,18,07,13,5.00
2022,05,18,07,14,5.00
2022,05,18,07,15,3.80
2022,05,18,07,16,4.00
2022,05,18,07,17,6.50
2022,05,18,07,18,4.80
2022,05,18,07,19,3.50
2022,05,18,07,20,2.80
2022,05,18,07,21,6.10
2022,05,18,07,22,3.60
2022,05,18,07,23,5.80
2022,05,18,07,24,4.50
2022,05,18,07,25,3.00
2022,05,18,07,26,4.10
2022,05,18,07,27,3.10
2022,05,18,07,28,3.30
2022,05,18,07,29,4.30
2022,05,18,07,30,3.40
2022,05,18,07,31,5.50
2022,05,18,07,32,8.20
2022,05,18,07,33,10.90
2022,05,18,07,34,8.60
2022,05,18,07,35,4.90
2022,05,18,07,36,5.00
2022,05,18,07,37,6.10
2022,05,18,07,38,7.90
2022,05,18,07,39,9.60
2022,05,18,07,40,8.10
2022,05,18,07,41,10.80
2022,05,18,07,42,5.20
2022,05,18,07,43,7.20
2022,05,18,07,44,9.80
2022,05,18,07,45,3.30
2022,05,18,07,46,3.30
2022,05,18,07,47,8.90
2022,05,18,07,48,13.80
2022,05,18,07,49,11.50
2022,05,18,07,50,13.50
2022,05,18,07,51,10.40
2022,05,18,07,52,5.20
2022,05,18,07,53,8.00
2022,05,18,07,54,5.50
2022,05,18,07,55,8.10
2022,05,18,07,56,13.80
2022,05,18,07,57,14.90
2022,05,18,07,58,20.50
2022,05,18,07,59,7.00
2022,05,18,08,00,8.70
2022,05,18,08,01,9.60
2022,05,18,08,02,7.60
2022,05,18,08,03,5.40
2022,05,18,08,04,10.70
2022,05,18,08,05,8.00
2022,05,18,08,06,8.10
2022,05,18,08,07,11.70
2022,05,18,08,08,19.80
2022,05,18,08,09,14.10
2022,05,18,08,10,26.40
2022,05,18,08,11,24.50
2022,05,18,08,12,22.90
2022,05,18,08,13,20.10
2022,05,18,08,14,21.50
2022,05,18,08,15,16.90
2022,05,18,08,16,20.30
2022,05,18,08,17,25.50
2022,05,18,08,18,21.90
2022,05,18,08,19,18.80
2022,05,18,08,20,25.10
2022,05,18,08,21,20.90
2022,05,18,08,22,24.20
2022,05,18,08,23,28.30
2022,05,18,08,24,24.30
2022,05,18,08,25,25.40
2022,05,18,08,26,28.30
2022,05,18,08,27,29.10
2022,05,18,08,28,28.20
2022,05,18,08,29,27.00
2022,05,18,08,30,24.80
2022,05,18,08,31,23.10
2022,05,18,08,32,19.30
2022,05,18,08,33,22.40
2022,05,18,08,34,20.00
2022,05,18,08,35,23.60
2022,05,18,08,36,25.20
2022,05,18,08,37,40.30
2022,05,18,08,38,25.40
2022,05,18,08,39,32.90
2022,05,18,08,40,28.30
2022,05,18,08,41,30.60
2022,05,18,08,42,39.70
2022,05,18,08,43,34.10
2022,05,18,08,44,30.60
2022,05,18,08,45,28.00
2022,05,18,08,46,24.90
2022,05,18,08,47,23.60
2022,05,18,08,48,32.40
2022,05,18,08,49,30.90
2022,05,18,08,50,31.90
2022,05,18,08,51,29.70
2022,05,18,08,52,26.90
2022,05,18,08,53,28.50
2022,05,18,08,54,23.60
2022,05,18,08,55,25.70
2022,05,18,08,56,32.70
2022,05,18,08,57,36.20
2022,05,18,08,58,41.40
2022,05,18,08,59,41.00
2022,05,18,09,00,34.90
2022,05,18,09,01,35.70
2022,05,18,09,02,32.50
2022,05,18,09,03,42.50
2022,05,18,09,04,42.90
2022,05,18,09,05,38.70
2022,05,18,09,06,38.60
2022,05,18,09,07,47.90
2022,05,18,09,08,44.00
2022,05,18,09,09,36.90
2022,05,18,09,10,48.10
2022,05,18,09,11,36.80
2022,05,18,09,12,32.30
2022,05,18,09,13,33.60
2022,05,18,09,14,31.00
2022,05,18,09,15,39.20
2022,05,18,09,16,37.40
2022,05,18,09,17,32.60
2022,05,18,09,18,28.10
2022,05,18,09,19,34.60
2022,05,18,09,20,31.60
2022,05,18,09,21,31.90
2022,05,18,09,22,25.20
2022,05,18,09,23,32.80
2022,05,18,09,24,42.60
2022,05,18,09,25,38.50
2022,05,18,09,26,40.80
2022,05,18,09,27,37.40
2022,05,18,09,28,48.50
2022,05,18,09,29,35.70
2022,05,18,09,30,46.70
2022,05,18,09,31,43.40
2022,05,18,09,32,47.30
2022,05,18,09,33,37.20
2022,05,18,09,34,33.50
2022,05,18,09,35,39.20
2022,05,18,09,36,32.00
2022,05,18,09,37,35.80
2022,05,18,09,38,45.70
2022,05,18,09,39,42.30
2022,05,18,09,40,46.50
2022,05,18,09,41,42.90
2022,05,18,09,42,42.90
2022,05,18,09,43,38.10
2022,05,18,09,44,33.90
2022,05,18,09,45,39.60
2022,05,18,09,46,30.90
2022,05,18,09,47,47.90
2022,05,18,09,48,47.70
2022,05,18,09,49,45.10
2022,05,18,09,50,42.40
2022,05,18,09,51,36.60
2022,05,18,09,52,30.00
2022,05,18,09,53,31.20
2022,05,18,09,54,26.30
2022,05,18,09,55,26.90
2022,05,18,09,56,32.50
2022,05,18,09,57,25.50
2022,05,18,09,58,38.40
2022,05,18,09,59,31.60
2022,05,18,10,00,37.40
2022,05,18,10,01,29.40
2022,05,18,10,02,30.60
2022,05,18,10,03,30.30
2022,05,18,10,04,34.30
2022,05,18,10,05,46.80
2022,05,18,10,06,38.00
2022,05,18,10,07,29.00
2022,05,18,10,08,35.80
2022,05,18,10,09,42.30
2022,05,18,10,10,33.30
2022,05,18,10,11,36.40
2022,05,18,10,12,45.40
2022,05,18,10,13,40.30
2022,05,18,10,14,51.30
2022,05,18,10,15,50.70
2022,05,18,10,16,40.60
2022,05,18,10,17,44.40
2022,05,18,10,18,55.20
2022,05,18,10,19,62.10
2022,05,18,10,20,46.00
2022,05,18,10,21,42.20
2022,05,18,10,22,44.60
2022,05,18,10,23,46.10
2022,05,18,10,24,47.60
2022,05,18,10,25,41.30
2022,05,18,10,26,43.00
2022,05,18,10,27,39.40
2022,05,18,10,28,40.60
2022,05,18,10,29,50.90
2022,05,18,10,30,46.30
2022,05,18,10,31,40.40
2022,05,18,10,32,46.30
2022,05,18,10,33,39.40
2022,05,18,10,34,50.60
2022,05,18,10,35,41.30
2022,05,18,10,36,52.30
2022,05,18,10,37,40.30
2022,05,18,10,38,48.40
2022,05,18,10,39,42.00
2022,05,18,10,40,50.00
2022,05,18,10,41,45.90
2022,05,18,10,42,53.90
2022,05,18,10,43,46.30
2022,05,18,10,44,44.70
2022,05,18,10,45,32.90
2022,05,18,10,46,42.10
2022,05,18,10,47,44.00
2022,05,18,10,48,41.50
2022,05,18,10,49,38.00
2022,05,18,10,50,45.10
2022,05,18,10,51,43.30
2022,05,18,10,52,43.50
2022,05,18,10,53,50.80
2022,05,18,10,54,41.60
2022,05,18,10,55,35.70
2022,05,18,10,56,43.20
2022,05,18,10,57,44.50
2022,05,18,10,58,52.90
2022,05,18,10,59,44.60
2022,05,18,11,00,48.90
2022,05,18,11,01,43.60
2022,05,18,11,02,43.40
2022,05,18,11,03,48.70
2022,05,18,11,04,41.80
2022,05,18,11,05,35.60
2022,05,18,11,06,39.70
2022,05,18,11,07,36.00
2022,05,18,11,08,36.60
2022,05,18,11,09,33.00
2022,05,18,11,10,32.20
2022,05,18,11,11,42.40
2022,05,18,11,12,43.50
2022,05,18,11,13,51.70
2022,05,18,11,14,38.90
2022,05,18,11,15,40.40
2022,05,18,11,16,42.80
2022,05,18,11,17,49.50
2022,05,18,11,18,39.60
2022,05,18,11,19,52.80
2022,05,18,11,20,53.90
2022,05,18,11,21,37.60
2022,05,18,11,22,44.80
2022,05,18,11,23,51.30
2022,05,18,11,24,46.20
2022,05,18,11,25,51.60
2022,05,18,11,26,44.30
2022,05,18,11,27,47.90
2022,05,18,11,28,50.30
2022,05,18,11,29,47.80
2022,05,18,11,30,48.40
2022,05,18,11,31,43.60
2022,05,18,11,32,47.70
2022,05,18,11,33,46.00
2022,05,18,11,34,41.40
2022,05,18,11,35,33.60
2022,05,18,11,36,38.10
2022,05,18,11,37,43.60
2022,05,18,11,38,45.10
2022,05,18,11,39,43.80
2022,05,18,11,40,45.70
2022,05,18,11,41,46.90
2022,05,18,11,42,46.50
2022,05,18,11,43,43.00
2022,05,18,11,44,40.20
2022,05,18,11,45,39.40
2022,05,18,11,46,36.10
2022,05,18,11,47,35.20
2022,05,18,11,48,42.60
2022,05,18,11,49,33.50
2022,05,18,11,50,49.00
2022,05,18,11,51,48.40
2022,05,18,11,52,43.70
2022,05,18,11,53,34.60
2022,05,18,11,54,37.20
2022,05,18,11,55,36.80
2022,05,18,11,56,32.90
2022,05,18,11,57,38.30
2022,05,18,11,58,29.20
2022,05,18,11,59,28.00
2022,05,18,12,00,47.70
2022,05,18,12,01,44.90
2022,05,18,12,02,38.30
2022,05,18,12,03,37.40
2022,05,18,12,04,33.70
2022,05,18,12,05,32.50
2022,05,18,12,06,43.50
2022,05,18,12,07,41.20
2022,05,18,12,08,31.90
2022,05,18,12,09,37.10
2022,05,18,12,10,47.20
2022,05,18,12,11,47.50
2022,05,18,12,12,42.30
2022,05,18,12,13,33.70
2022,05,18,12,14,39.00
2022,05,18,12,15,39.80
2022,05,18,12,16,34.00
2022,05,18,12,17,32.50
2022,05,18,12,18,43.10
2022,05,18,12,19,46.50
2022,05,18,12,20,41.30
2022,05,18,12,21,38.60
2022,05,18,12,22,42.70
2022,05,18,12,23,38.90
2022,05,18,12,24,35.10
2022,05,18,12,25,40.10
2022,05,18,12,26,35.70
2022,05,18,12,27,47.00
2022,05,18,12,28,51.20
2022,05,18,12,29,39.00
2022,05,18,12,30,41.90
2022,05,18,12,31,36.90
2022,05,18,12,32,40.60
2022,05,18,12,33,34.00
2022,05,18,12,34,30.60
2022,05,18,12,35,36.00
2022,05,18,12,36,42.70
2022,05,18,12,37,44.70
2022,05,18,12,38,44.60
2022,05,18,12,39,38.10
2022,05,18,12,40,31.30
2022,05,18,12,41,45.30
2022,05,18,12,42,41.00
2022,05,18,12,43,37.80
2022,05,18,12,44,33.60
2022,05,18,12,45,35.00
2022,05,18,12,46,36.80
2022,05,18,12,47,37.60
2022,05,18,12,48,31.90
2022,05,18,12,49,26.50
2022,05,18,12,50,32.40
2022,05,18,12,51,32.40
2022,05,18,12,52,36.80
2022,05,18,12,53,42.30
2022,05,18,12,54,32.20
2022,05,18,12,55,41.10
2022,05,18,12,56,31.10
2022,05,18,12,57,38.00
2022,05,18,12,58,36.30
2022,05,18,12,59,41.10
2022,05,18,13,00,45.80
2022,05,18,13,01,44.70
2022,05,18,13,02,48.00
2022,05,18,13,03,41.20
2022,05,18,13,04,37.30
2022,05,18,13,05,40.00
2022,05,18,13,06,40.00
2022,05,18,13,07,39.70
2022,05,18,13,08,37.80
2022,05,18,13,09,42.20
2022,05,18,13,10,35.70
2022,05,18,13,11,27.90
2022,05,18,13,12,35.10
2022,05,18,13,13,41.30
2022,05,18,13,14,40.60
2022,05,18,13,15,27.10
2022,05,18,13,16,27.80
2022,05,18,13,17,36.30
2022,05,18,13,18,33.90
2022,05,18,13,19,35.30
2022,05,18,13,20,39.20
2022,05,18,13,21,44.40
2022,05,18,13,22,33.10
2022,05,18,13,23,39.30
2022,05,18,13,24,38.30
2022,05,18,13,25,45.80
2022,05,18,13,26,42.60
2022,05,18,13,27,44.70
2022,05,18,13,28,40.00
2022,05,18,13,29,45.10
2022,05,18,13,30,47.20
2022,05,18,13,31,45.20
2022,05,18,13,32,45.40
2022,05,18,13,33,45.20
2022,05,18,13,34,38.90
2022,05,18,13,35,40.10
2022,05,18,13,36,50.70
2022,05,18,13,37,43.40
2022,05,18,13,38,46.50
2022,05,18,13,39,46.20
2022,05,18,13,40,43.70
2022,05,18,13,41,39.30
2022,05,18,13,42,33.70
2022,05,18,13,43,45.90
2022,05,18,13,44,36.80
2022,05,18,13,45,38.60
2022,05,18,13,46,43.50
2022,05,18,13,47,49.00
2022,05,18,13,48,46.50
2022,05,18,13,49,41.60
2022,05,18,13,50,41.90
2022,05,18,13,51,45.40
2022,05,18,13,52,38.60
2022,05,18,13,53,42.70
2022,05,18,13,54,40.90
2022,05,18,13,55,40.40
2022,05,18,13,56,38.30
2022,05,18,13,57,44.30
2022,05,18,13,58,44.20
2022,05,18,13,59,40.30
2022,05,18,14,00,32.40
2022,05,18,14,01,36.50
2022,05,18,14,02,38.50
2022,05,18,14,03,38.30
2022,05,18,14,04,45.70
2022,05,18,14,05,49.80
2022,05,18,14,06,43.80
2022,05,18,14,07,45.00
2022,05,18,14,08,41.20
2022,05,18,14,09,42.90
2022,05,18,14,10,41.10
2022,05,18,14,11,44.80
2022,05,18,14,12,45.20
2022,05,18,14,13,46.90
2022,05,18,14,14,31.80
2022,05,18,14,15,37.30
2022,05,18,14,16,46.60
2022,05,18,14,17,42.30
2022,05,18,14,18,38.60
2022,05,18,14,19,40.20
2022,05,18,14,20,33.00
2022,05,18,14,21,51.30
2022,05,18,14,22,54.40
2022,05,18,14,23,46.90
2022,05,18,14,24,49.10
2022,05,18,14,25,46.10
2022,05,18,14,26,49.50
2022,05,18,14,27,57.50
2022,05,18,14,28,59.20
2022,05,18,14,29,44.90
2022,05,18,14,30,36.80
2022,05,18,14,31,42.70
2022,05,18,14,32,51.20
2022,05,18,14,33,44.60
2022,05,18,14,34,41.30
2022,05,18,14,35,57.20
2022,05,18,14,36,41.20
2022,05,18,14,37,36.70
2022,05,18,14,38,39.50
2022,05,18,14,39,33.70
2022,05,18,14,40,44.40
2022,05,18,14,41,37.60
2022,05,18,14,42,44.50
2022,05,18,14,43,33.80
2022,05,18,14,44,35.40
2022,05,18,14,45,42.00
2022,05,18,14,46,39.40
2022,05,18,14,47,37.40
2022,05,18,14,48,43.00
2022,05,18,14,49,39.60
2022,05,18,14,50,41.60
2022,05,18,14,51,42.60
2022,05,18,14,52,49.90
2022,05,18,14,53,46.70
2022,05,18,14,54,51.60
2022,05,18,14,55,51.90
2022,05,18,14,56,30.50
2022,05,18,14,57,46.70
2022,05,18,14,58,47.90
2022,05,18,14,59,39.30
2022,05,18,15,00,38.80
2022,05,18,15,01,45.50
2022,05,18,15,02,50.30
2022,05,18,15,03,44.10
2022,05,18,15,04,50.80
2022,05,18,15,05,48.90
2022,05,18,15,06,50.20
2022,05,18,15,07,44.50
2022,05,18,15,08,47.30
2022,05,18,15,09,48.70
2022,05,18,15,10,40.30
2022,05,18,15,11,38.70
2022,05,18,15,12,44.30
2022,05,18,15,13,46.50
2022,05,18,15,14,37.30
2022,05,18,15,15,33.40
2022,05,18,15,16,38.40
2022,05,18,15,17,34.10
2022,05,18,15,18,34.60
2022,05,18,15,19,41.60
2022,05,18,15,20,42.40
2022,05,18,15,21,38.10
2022,05,18,15,22,49.70
2022,05,18,15,23,47.50
2022,05,18,15,24,43.60
2022,05,18,15,25,42.00
2022,05,18,15,26,46.80
2022,05,18,15,27,44.20
2022,05,18,15,28,45.00
2022,05,18,15,29,52.30
2022,05,18,15,30,52.90
2022,05,18,15,31,55.90
2022,05,18,15,32,55.80
2022,05,18,15,33,46.40
2022,05,18,15,34,46.20
2022,05,18,15,35,32.40
2022,05,18,15,36,39.80
2022,05,18,15,37,40.70
2022,05,18,15,38,52.10
2022,05,18,15,39,47.10
2022,05,18,15,40,42.40
2022,05,18,15,41,35.40
2022,05,18,15,42,47.50
2022,05,18,15,43,51.30
2022,05,18,15,44,41.80
2022,05,18,15,45,40.90
2022,05,18,15,46,51.30
2022,05,18,15,47,44.40
2022,05,18,15,48,44.60
2022,05,18,15,49,51.20
2022,05,18,15,50,52.80
2022,05,18,15,51,53.70
2022,05,18,15,52,49.00
2022,05,18,15,53,49.00
2022,05,18,15,54,46.70
2022,05,18,15,55,40.00
2022,05,18,15,56,51.20
2022,05,18,15,57,53.00
2022,05,18,15,58,55.90
2022,05,18,15,59,47.10
2022,05,18,16,00,53.00
2022,05,18,16,01,51.50
2022,05,18,16,02,63.30
2022,05,18,16,03,51.10
2022,05,18,16,04,46.20
2022,05,18,16,05,46.60
2022,05,18,16,06,51.20
2022,05,18,16,07,46.50
2022,05,18,16,08,56.20
2022,05,18,16,09,48.50
2022,05,18,16,10,40.80
2022,05,18,16,11,38.70
2022,05,18,16,12,51.20
2022,05,18,16,13,46.40
2022,05,18,16,14,42.90
2022,05,18,16,15,44.10
2022,05,18,16,16,35.10
2022,05,18,16,17,37.20
2022,05,18,16,18,39.80
2022,05,18,16,19,40.00
2022,05,18,16,20,49.60
2022,05,18,16,21,49.00
2022,05,18,16,22,42.70
2022,05,18,16,23,38.40
2022,05,18,16,24,48.70
2022,05,18,16,25,48.00
2022,05,18,16,26,51.30
2022,05,18,16,27,56.40
2022,05,18,16,28,55.70
2022,05,18,16,29,56.90
2022,05,18,16,30,56.10
2022,05,18,16,31,54.50
2022,05,18,16,32,42.40
2022,05,18,16,33,52.30
2022,05,18,16,34,47.30
2022,05,18,16,35,57.30
2022,05,18,16,36,54.60
2022,05,18,16,37,53.20
2022,05,18,16,38,53.90
2022,05,18,16,39,45.40
2022,05,18,16,40,49.80
2022,05,18,16,41,44.90
2022,05,18,16,42,40.00
2022,05,18,16,43,45.60
2022,05,18,16,44,45.40
2022,05,18,16,45,49.40
2022,05,18,16,46,45.60
2022,05,18,16,47,47.30
2022,05,18,16,48,48.50
2022,05,18,16,49,53.40
2022,05,18,16,50,52.90
2022,05,18,16,51,52.80
2022,05,18,16,52,42.30
2022,05,18,16,53,43.20
2022,05,18,16,54,46.60
2022,05,18,16,55,48.80
2022,05,18,16,56,49.60
2022,05,18,16,57,45.40
2022,05,18,16,58,47.30
2022,05,18,16,59,53.90
2022,05,18,17,00,55.40
2022,05,18,17,01,52.90
2022,05,18,17,02,54.50
2022,05,18,17,03,44.40
2022,05,18,17,04,52.70
2022,05,18,17,05,50.10
2022,05,18,17,06,60.20
2022,05,18,17,07,47.20
2022,05,18,17,08,54.80
2022,05,18,17,09,43.60
2022,05,18,17,10,52.60
2022,05,18,17,11,62.70
2022,05,18,17,12,55.70
2022,05,18,17,13,60.10
2022,05,18,17,14,55.70
2022,05,18,17,15,53.40
2022,05,18,17,16,53.70
2022,05,18,17,17,58.00
2022,05,18,17,18,50.30
2022,05,18,17,19,49.30
2022,05,18,17,20,43.40
2022,05,18,17,21,52.00
2022,05,18,17,22,46.00
2022,05,18,17,23,56.80
2022,05,18,17,24,49.70
2022,05,18,17,25,48.40
2022,05,18,17,26,48.40
2022,05,18,17,27,49.80
2022,05,18,17,28,57.20
2022,05,18,17,29,56.70
2022,05,18,17,30,48.30
2022,05,18,17,31,53.40
2022,05,18,17,32,49.50
2022,05,18,17,33,50.60
2022,05,18,17,34,44.30
2022,05,18,17,35,39.20
2022,05,18,17,36,33.00
2022,05,18,17,37,47.70
2022,05,18,17,38,45.10
2022,05,18,17,39,51.80
2022,05,18,17,40,52.50